Macomb, IL

8:48 PM CDT on July 22, 2017 (GMT -0500)
Macomb Municipal

Weather History for KMQB - October, 2013

Change the Weather History Date:

Monday, October 28, 2013

  Actual Average (KBRL) Record (KBRL)
Temperature  
Mean Temperature 48 °F -  
Max Temperature 67 °F 60 °F 82 °F (1927)
Min Temperature 30 °F 41 °F 12 °F (1925)
Degree Days  
Heating Degree Days 16    
Moisture  
Dew Point 31 °F    
Average Humidity 61    
Maximum Humidity 90    
Minimum Humidity 20    
Precipitation  
Precipitation 0.00 in - - ()
Sea Level Pressure  
Sea Level Pressure 30.19 in    
Wind  
Wind Speed 2 mph (East)    
Max Wind Speed 12 mph    
Max Gust Speed 16 mph    
Visibility 10 miles    
Events      
Averages and records for this station are not official NWS values.
T = Trace of Precipitation, MM = Missing Value Source: NWS Daily Summary

Daily Weather History Graph

Daily Weather History Graph

Search for Another Location

Airport or City:

Trip Planner

Search our weather history database for the weather conditions in past years. The results will help you decide how hot, cold, wet, or windy it might be!

Date:

Astronomy

Oct. 28, 2013 Rise Set
Actual Time 7:28 AM CDT 6:03 PM CDT
Civil Twilight 7:00 AM CDT 6:31 PM CDT
Nautical Twilight 6:28 AM CDT 7:03 PM CDT
Astronomical Twilight 5:56 AM CDT 7:35 PM CDT
Moon 1:20 AM CDT (10/28) 2:47 PM CDT (10/28)
Length of Visible Light 11h 31m
Length of Day
10h 35m
Waning Crescent, 34% of the Moon is Illuminated
Oct 28
Waning Crescent
Nov 3
New
Nov 9
First Quarter
Nov 17
Full
Nov 25
Last Quarter

Hourly Weather History & Observations

Time (CDT) Temp. Windchill Dew Point Humidity Pressure Visibility Wind Dir Wind Speed Gust Speed Precip Events Conditions
12:15 AM 35.6 °F - 29.3 °F 78% 30.08 in 10.0 mi Calm Calm - N/A   Clear
12:35 AM 34.3 °F - 29.1 °F 81% 30.07 in 10.0 mi Calm Calm - N/A   Clear
12:55 AM 35.4 °F 32.6 °F 30.0 °F 81% 30.07 in 10.0 mi SE 3.5 mph - N/A   Clear
1:15 AM 34.7 °F - 30.6 °F 85% 30.08 in 10.0 mi Calm Calm - N/A   Clear
1:35 AM 34.3 °F - 30.2 °F 85% 30.07 in 10.0 mi Calm Calm - N/A   Clear
1:55 AM 33.8 °F - 29.3 °F 84% 30.08 in 10.0 mi Calm Calm - N/A   Clear
2:15 AM 32.7 °F - 28.8 °F 85% 30.09 in 10.0 mi Calm Calm - N/A   Clear
2:35 AM 32.4 °F - 28.2 °F 85% 30.08 in 10.0 mi Calm Calm - N/A   Clear
2:55 AM 32.2 °F - 28.0 °F 85% 30.08 in 10.0 mi Calm Calm - N/A   Clear
3:15 AM 32.0 °F - 28.0 °F 85% 30.09 in 10.0 mi Calm Calm - N/A   Clear
3:35 AM 31.3 °F - 26.6 °F 83% 30.09 in 10.0 mi Calm Calm - N/A   Clear
3:55 AM 31.8 °F - 27.5 °F 84% 30.09 in 10.0 mi Calm Calm - N/A   Clear
4:15 AM 32.0 °F - 28.4 °F 87% 30.10 in 10.0 mi Calm Calm - N/A   Clear
4:35 AM 32.0 °F - 28.0 °F 85% 30.10 in 10.0 mi Calm Calm - N/A   Clear
4:55 AM 31.6 °F - 27.5 °F 85% 30.11 in 10.0 mi Calm Calm - N/A   Clear
5:15 AM 31.1 °F - 27.1 °F 85% 30.11 in 10.0 mi Calm Calm - N/A   Clear
5:35 AM 32.0 °F - 27.7 °F 84% 30.13 in 10.0 mi Calm Calm - N/A   Clear
5:55 AM 31.6 °F - 27.7 °F 85% 30.13 in 10.0 mi Calm Calm - N/A   Clear
6:15 AM 31.8 °F - 27.9 °F 85% 30.14 in 10.0 mi Calm Calm - N/A   Clear
6:35 AM 32.0 °F - 28.8 °F 88% 30.14 in 10.0 mi Calm Calm - N/A   Clear
6:55 AM 32.0 °F - 28.8 °F 88% 30.15 in 10.0 mi Calm Calm - N/A   Clear
7:15 AM 31.5 °F - 28.2 °F 88% 30.16 in 10.0 mi Calm Calm - N/A   Clear
7:35 AM 30.2 °F - 27.5 °F 90% 30.17 in 10.0 mi Calm Calm - N/A   Clear
7:55 AM 30.9 °F - 27.3 °F 86% 30.17 in 10.0 mi Calm Calm - N/A   Clear
8:15 AM 32.0 °F 28.7 °F 28.8 °F 88% 30.18 in 10.0 mi East 3.5 mph - N/A   Clear
8:35 AM 35.4 °F - 32.2 °F 88% 30.19 in 10.0 mi Calm Calm - N/A   Clear
8:55 AM 38.8 °F - 33.8 °F 82% 30.20 in 10.0 mi Calm Calm - N/A   Clear
9:15 AM 43.7 °F - 35.8 °F 74% 30.21 in 10.0 mi Calm Calm - N/A   Clear
9:35 AM 45.5 °F - 35.4 °F 68% 30.22 in 10.0 mi Calm Calm - N/A   Clear
9:55 AM 48.9 °F - 36.1 °F 61% 30.22 in 10.0 mi Calm Calm - N/A   Clear
10:15 AM 52.0 °F - 36.9 °F 56% 30.22 in 10.0 mi Calm Calm - N/A   Clear
10:35 AM 55.0 °F - 37.2 °F 51% 30.23 in 10.0 mi Calm Calm - N/A   Clear
10:55 AM 55.6 °F - 36.9 °F 49% 30.23 in 5.0 mi Calm Calm - N/A   Haze
11:15 AM 57.4 °F - 36.1 °F 45% 30.24 in 7.0 mi East 3.5 mph - N/A   Clear
11:35 AM 59.0 °F - 35.6 °F 42% 30.24 in 10.0 mi East 4.6 mph - N/A   Clear
11:55 AM 61.2 °F - 33.3 °F 35% 30.24 in 10.0 mi ESE 4.6 mph - N/A   Clear
12:15 PM 62.6 °F - 32.7 °F 33% 30.24 in 7.0 mi East 5.8 mph - N/A   Clear
12:35 PM 62.8 °F - 31.8 °F 31% 30.23 in 10.0 mi East 4.6 mph - N/A   Clear
12:55 PM 64.2 °F - 31.5 °F 29% 30.22 in 10.0 mi East 8.1 mph - N/A   Clear
1:15 PM 65.3 °F - 28.9 °F 26% 30.22 in 10.0 mi East 8.1 mph - N/A   Clear
1:35 PM 66.2 °F - 29.1 °F 25% 30.21 in 10.0 mi East 5.8 mph 16.1 mph N/A   Clear
1:55 PM 67.1 °F - 27.7 °F 23% 30.21 in 10.0 mi ESE 11.5 mph - N/A   Clear
2:15 PM 67.3 °F - 27.9 °F 23% 30.20 in 10.0 mi SE 11.5 mph - N/A   Clear
2:35 PM 67.1 °F - 28.4 °F 23% 30.20 in 10.0 mi SE 8.1 mph - N/A   Clear
2:55 PM 67.1 °F - 26.6 °F 22% 30.20 in 10.0 mi ESE 4.6 mph - N/A   Clear
3:15 PM 66.9 °F - 24.8 °F 20% 30.20 in 10.0 mi SSE 4.6 mph - N/A   Clear
3:35 PM 66.2 °F - 27.5 °F 23% 30.21 in 10.0 mi ESE 8.1 mph - N/A   Clear
3:55 PM 66.4 °F - 27.9 °F 24% 30.21 in 10.0 mi SE 4.6 mph - N/A   Clear
4:15 PM 66.2 °F - 29.5 °F 25% 30.22 in 10.0 mi ESE 8.1 mph - N/A   Clear
4:35 PM 65.5 °F - 30.0 °F 26% 30.22 in 10.0 mi ESE 5.8 mph - N/A   Clear
4:55 PM 65.5 °F - 31.1 °F 28% 30.22 in 10.0 mi ESE 6.9 mph - N/A   Clear
5:15 PM 63.5 °F - 31.8 °F 31% 30.22 in 10.0 mi ESE 4.6 mph - N/A   Clear
5:35 PM 61.7 °F - 31.3 °F 32% 30.22 in 10.0 mi East 5.8 mph - N/A   Clear
5:55 PM 57.4 °F - 32.4 °F 39% 30.22 in 10.0 mi East 4.6 mph - N/A   Clear
6:15 PM 54.5 °F - 32.0 °F 42% 30.22 in 10.0 mi East 5.8 mph - N/A   Clear
6:35 PM 51.6 °F - 31.6 °F 46% 30.23 in 10.0 mi NE 8.1 mph - N/A   Clear
6:55 PM 52.5 °F - 34.7 °F 51% 30.25 in 10.0 mi NE 6.9 mph - N/A   Clear
7:15 PM 52.0 °F - 35.1 °F 53% 30.25 in 10.0 mi ENE 8.1 mph - N/A   Clear
7:35 PM 50.0 °F - 35.1 °F 57% 30.26 in 10.0 mi ENE 6.9 mph - N/A   Clear
7:55 PM 48.9 °F - 33.8 °F 56% 30.27 in 10.0 mi ENE 5.8 mph - N/A   Clear
8:15 PM 47.5 °F - 33.6 °F 59% 30.26 in 10.0 mi ENE 8.1 mph - N/A   Clear
8:35 PM 47.3 °F - 34.2 °F 60% 30.26 in 10.0 mi ENE 6.9 mph - N/A   Clear
8:55 PM 46.9 °F - 34.0 °F 61% 30.27 in 10.0 mi ENE 6.9 mph - N/A   Clear
9:15 PM 46.8 °F - 34.2 °F 62% 30.28 in 10.0 mi NE 5.8 mph - N/A   Clear
9:35 PM 46.8 °F - 34.2 °F 62% 30.28 in 10.0 mi ENE 8.1 mph - N/A   Clear
9:55 PM 46.4 °F 41.9 °F 34.2 °F 62% 30.28 in 10.0 mi ENE 9.2 mph - N/A   Clear
10:15 PM 47.8 °F - 34.7 °F 60% 30.29 in 10.0 mi ENE 10.4 mph - N/A   Clear
10:35 PM 46.6 °F - 35.1 °F 64% 30.30 in 10.0 mi ENE 9.2 mph - N/A   Clear
10:55 PM 45.5 °F 41.3 °F 35.8 °F 69% 30.30 in 10.0 mi ENE 8.1 mph - N/A   Clear
11:15 PM 45.0 °F 40.6 °F 37.4 °F 75% 30.30 in 10.0 mi ENE 8.1 mph - N/A   Clear
11:35 PM 45.7 °F 41.5 °F 39.2 °F 78% 30.30 in 10.0 mi ENE 8.1 mph - N/A   Clear
11:55 PM 45.7 °F 41.0 °F 40.1 °F 81% 30.30 in 10.0 mi East 9.2 mph - N/A   Clear